Weather Roundup
Issued by NWS Chicago, IL

Home | Current Version | Previous Version | Graphics & Text | Print | Product List | Glossary On
Versions: 1 2 3 4 5 6 7 8 9 10 11 12 13 14 15 16 17 18 19 20 21 22 23 24 25 26 27 28 29 30 31 32 33 34 35 36 37 38 39 40 41 42 43 44 45 46 47 48 49 50
000
NZUS59 KLOT 062000
HRRLOT

CHICAGO AREA WEATHER ROUNDUP
NATIONAL WEATHER SERVICE CHICAGO/ROMEOVILLE IL
200 PM CST FRI MAR 06 2015

NOTE: "FAIR" INDICATES FEW OR NO CLOUDS BELOW 12,000 FEET WITH NO
SIGNIFICANT WEATHER AND/OR OBSTRUCTIONS TO VISIBILITY.

* THESE STATIONS ARE NOT UNDER NWS QUALITY CONTROL. THEY ALSO MAY NOT
  REPORT WEATHER SUCH AS PRECIPITATION OR FOG.

ILZ005-006-012>014-019>023-062100-
NORTHEAST ILLINOIS

CITY           SKY/WX    TMP DP  RH WIND       PRES   REMARKS
OHARE          MOSUNNY   25  11  55 S17       30.21F WCI  12
MIDWAY         MOSUNNY   26  11  52 S16G26    30.24F WCI  14
AURORA         SUNNY     25  13  60 S20G28    30.23F WCI  11
WAUKEGAN       CLOUDY    28  11  48 S22       30.18F WCI  14
DUPAGE AIRPORT SUNNY     23  12  62 S22G30    30.22F WCI   8
WHEELING       SUNNY     27   8  44 SW21G30   30.23F WCI  13
NORTHERLY IS     N/A     24  10  55 S14         N/A  WCI  12
$$

WIZ051-052-058>065-066-070>072-062100-
SOUTHEAST WISCONSIN

CITY           SKY/WX    TMP DP  RH WIND       PRES   REMARKS
MILWAUKEE      PTSUNNY   28   9  44 SW22G32   30.15F WCI  14
KENOSHA*       CLOUDY    27  11  51 SW18G25   30.17F WCI  14
RACINE*        CLOUDY    28  10  46 S18G25    30.18F WCI  15
WAUKESHA       MOSUNNY   25  10  54 SW14G25   30.15F WCI  13
$$

INZ001>003-010>013-019-020-062100-
NORTHWEST INDIANA

CITY           SKY/WX    TMP DP  RH WIND       PRES   REMARKS
GARY*          MOSUNNY   25   5  42 S12G29    30.27F WCI  14
MICHIGAN CITY* NOT AVBL
RENSSELAER*    NOT AVBL
$$

LMZ740>746-062100-
SOUTHERN LAKE MICHIGAN

STATION/POSITION TIME  SKY/WX   TEMP WIND        PRES    VSBY
                                AIR  DIR/SP/G
                 (UTC)          (F)  (DEG/KT/KT) (MB)    (MI)
HARRISON CRIB    1900            22  180/ 27/ 33   N/A
BURNHAM HARBOR   2000            24  200/ 19/ 22   N/A
CALUMET HARBOR   1900            22  180/ 12/ 22 1023.7F
BURNS HARBOR     NOT AVBL
MICHIGAN CITY    1900            19  150/ 17/ 23   N/A
$$

ABBREVIATIONS USED IN REMARKS
   TC - TEMPERATURE IN CELSIUS
  WCI - WIND CHILL INDEX
   HX - HEAT INDEX
  VSB - VISIBILITY
$$



USA.gov is the U.S. government's official web portal to all federal, state and local government web resources and services.